Location: Buchloe
(48.0161°N, 10.7316°E)
Time: 04:27:07
(UTC+02:00)

ISS - Pass Details

Date: 09 July 2025
Orbit: 413 x 417 km, 51.6° (Epoch: 12 July)

Event Time Altitude Azimuth Distance (km) Brightness Sun altitude
Rises 02:00:36 0° 286° (WNW) 2,355 0.1 -19.1°
Reaches altitude 10° 02:02:45 10° 293° (WNW) 1,492 -0.8 -19.1°
Maximum altitude 02:06:00 47° 9° (N) 564 -2.7 -19.0°
Drops below altitude 10° 02:09:15 10° 84° (E) 1,492 -0.8 -18.9°
Sets 02:11:23 0° 91° (E) 2,355 0.2 -18.8°
